Showing default

FOSSASAT2E19 (TAT-E), 62676

Orbit data source: Space-Track

FOSSASAT2E19 (TAT-E), 62676 is a payload satellite owned by Fossa Systems (ES) in SSO that was launched on Tue, 14 Jan 2025 UTC via an FALCON 9 launch vehicle from the Air Force Western Test Range (AFWTR). Payload-class satellites include a variety of spacecraft equipped with specific instruments for various scientific and technological missions. These include communications satellites like Starlink; space stations such as the ISS; scientific satellites like the Hubble; Earth observation satellites from companies like Planet Labs, Umbra, and HawkEye 360; GPS; miniature CubeSats for education and research; and military/defense satellites.

Loading next visibility...
Identifier
62676, 2025-009BV
Orbit
SSO
Country
Flag of ESES / SPN
Related business
Manufacturer
Fossa Systems
Mission
Operational Commercial Communications
Bus & Motor
CUBESAT 3U, Unknown motor
Mass
4 kg wet, 4 kg dry
Launch date (UTC)
2025-01-14 (1 year ago)
Launch vehicle
FALCON 9
Launch site
Air Force Western Test Range (AFWTR)
Object type
Payload
Rocket body
Debris
Shape & HBR
Box + 2 Pan, 0.2 m
Radar Cross Section
0.035 m², Medium (>0.1 m² and < 1m²)

Expand to show TLE details & history
Last TLE update: 22 hours ago

TLE from 22 hours ago
0 FOSSASAT2E19 (TAT-E)
1 62676U 25009BV  26034.47278360  .00012603  00000-0  58196-3 0  9999
2 62676  97.4068 115.1591 0006854  88.9680 271.2340 15.20322081 58374
Epoch: 2026-02-03T11:20Z
TLE epoch observation values (Epoch: 2026-02-03T11:20:48.503Z)
Latitude
-0.00005°
Longitude
171.30379°
Altitude
507.861 km
Speed
7.61 km/s
True Right ascension
07h 40m 38s
True Declination
0° 00' 00"
Sunlit
Object was in full shadow at epoch
Visualization orbit readout
Latitude
Unknown
Longitude
Unknown
Altitude
Unknown
Speed
Unknown
Apparent Right ascension
Unknown
Apparent Declination
Unknown
Sunlit
N/A
Visualization observer readout
Local Sidereal Time
11:11:40
Azimuth
Unknown
Elevation
Unknown
Doppler factor
Unknown
Orbital elements
Apogee altitude
506.549 km
Perigee altitude
497.118 km
Semi-major axis
6,879.971 km
Eccentricity
0.00069
Inclination
97.4068°
RAAN
115.1591°
Arg. of periapsis
88.968°
True anomaly
271.15548°
Mean anomaly
271.234°
Eccentric anomaly
271.19474°
Mean motion
3.80332 °/min
Orbital period
94.65 mins
BSTAR
0.00058196
Loading maneuver chart data...
Computing Atmospheric mass density...
Loading historical data...
Loading historical data...
Loading historical data...
Loading historical data...
Loading historical data...
Loading historical data...
Loading historical data...

Documentation

Showing up to 5 results
|